Change the Weather History Date:

Tuesday, February 26, 2013

  Actual Average Record
Temperature  
Mean Temperature 44 °F -  
Max Temperature 48 °F 45 °F 68 °F (1998)
Min Temperature 39 °F 30 °F 12 °F (2014)
Degree Days  
Heating Degree Days 22    
Moisture  
Dew Point 36 °F    
Average Humidity 78    
Maximum Humidity 93    
Minimum Humidity 43    
Precipitation  
Precipitation 0.64 in - - ()
Sea Level Pressure  
Sea Level Pressure 29.49 in    
Wind  
Wind Speed 15 mph (SSE)    
Max Wind Speed 22 mph    
Max Gust Speed 31 mph    
Visibility 8 miles    
Events      
Averages and records for this station are not official NWS values.
T = Trace of Precipitation, MM = Missing Value Source: NWS Daily Summary

Daily Weather History Graph

Daily Weather History Graph

Search for Another Location

Airport or City:

Trip Planner

Search our weather history database for the weather conditions in past years. The results will help you decide how hot, cold, wet, or windy it might be!

Date:

Astronomy

Feb. 26, 2013 Rise Set
Actual Time 7:23 AM EST 6:38 PM EST
Civil Twilight 6:56 AM EST 7:04 PM EST
Nautical Twilight 6:26 AM EST 7:35 PM EST
Astronomical Twilight 5:55 AM EST 8:06 PM EST
Moon 7:52 PM EST (2/26) 7:27 AM EST (2/26)
Length of Visible Light 12h 07m
Length of Day
11h 14m
Full, 99% of the Moon is Illuminated
Feb 26
Full
Mar 4
Last Quarter
Mar 11
New
Mar 19
First Quarter
Mar 27
Full

Hourly Weather History & Observations

Time (EST) Temp. Windchill Dew Point Humidity Pressure Visibility Wind Dir Wind Speed Gust Speed Precip Events Conditions
12:15 AM 44.6 °F 36.4 °F 23.0 °F 43% 29.70 in 10.0 mi East 20.7 mph 25.3 mph N/A   Overcast
12:35 AM 44.6 °F 36.1 °F 23.0 °F 43% 29.67 in 10.0 mi East 21.9 mph 29.9 mph N/A   Mostly Cloudy
12:55 AM 44.6 °F 36.1 °F 23.0 °F 43% 29.65 in 10.0 mi East 21.9 mph 31.1 mph N/A   Mostly Cloudy
1:15 AM 44.6 °F 36.9 °F 23.0 °F 43% 29.65 in 10.0 mi East 18.4 mph 25.3 mph N/A   Overcast
1:35 AM 44.6 °F 36.9 °F 24.8 °F 46% 29.64 in 10.0 mi East 18.4 mph 26.5 mph N/A   Overcast
1:55 AM 44.6 °F 36.6 °F 24.8 °F 46% 29.62 in 10.0 mi East 19.6 mph - N/A   Overcast
2:15 AM 44.6 °F 36.9 °F 24.8 °F 46% 29.59 in 10.0 mi East 18.4 mph 28.8 mph N/A   Overcast
2:35 AM 42.8 °F 34.8 °F 26.6 °F 53% 29.56 in 10.0 mi East 17.3 mph 25.3 mph N/A   Mostly Cloudy
2:55 AM 42.8 °F 34.8 °F 26.6 °F 53% 29.55 in 10.0 mi East 17.3 mph 26.5 mph N/A   Overcast
3:15 AM 42.8 °F 34.5 °F 28.4 °F 57% 29.53 in 10.0 mi East 18.4 mph 27.6 mph N/A   Overcast
3:35 AM 42.8 °F 34.3 °F 28.4 °F 57% 29.50 in 10.0 mi ENE 19.6 mph 25.3 mph N/A   Mostly Cloudy
3:55 AM 42.8 °F 34.3 °F 28.4 °F 57% 29.49 in 10.0 mi East 19.6 mph 24.2 mph N/A   Overcast
4:15 AM 42.8 °F 36.2 °F 30.2 °F 61% 29.51 in 10.0 mi ENE 12.7 mph 21.9 mph N/A   Overcast
4:35 AM 42.8 °F 36.2 °F 30.2 °F 61% 29.52 in 10.0 mi East 12.7 mph 16.1 mph N/A   Overcast
4:55 AM 42.8 °F 36.2 °F 32.0 °F 66% 29.51 in 8.0 mi East 12.7 mph 19.6 mph 0.04 in   Overcast
5:15 AM 39.2 °F 31.6 °F 33.8 °F 81% 29.49 in 8.0 mi ENE 12.7 mph - 0.10 in   Overcast
5:35 AM 39.2 °F 35.9 °F 33.8 °F 81% 29.52 in 9.0 mi NNE 4.6 mph - 0.19 in   Overcast
5:55 AM 39.2 °F 34.2 °F 35.6 °F 87% 29.50 in 6.0 mi ENE 6.9 mph - 0.25 in   Overcast
6:15 AM 39.2 °F 33.0 °F 35.6 °F 87% 29.48 in 7.0 mi ENE 9.2 mph - N/A   Overcast
6:35 AM 39.2 °F 33.6 °F 35.6 °F 87% 29.48 in 5.0 mi ENE 8.1 mph - N/A   Overcast
6:55 AM 39.2 °F 34.2 °F 35.6 °F 87% 29.46 in 4.0 mi ENE 6.9 mph - 0.01 in   Overcast
7:15 AM 39.2 °F 35.0 °F 37.4 °F 93% 29.46 in 4.0 mi ENE 5.8 mph - 0.03 in   Overcast
7:35 AM 39.2 °F 33.6 °F 37.4 °F 93% 29.46 in 3.0 mi ENE 8.1 mph - 0.07 in   Overcast
7:55 AM 39.2 °F 35.0 °F 37.4 °F 93% 29.46 in 1.8 mi ENE 5.8 mph - 0.09 in   Overcast
8:15 AM 41.0 °F 35.8 °F 37.4 °F 87% 29.45 in 2.0 mi East 8.1 mph - 0.03 in   Overcast
8:55 AM 41.0 °F 33.9 °F 37.4 °F 87% 29.44 in 1.8 mi ENE 12.7 mph - 0.10 in   Overcast
9:35 AM 42.8 °F 36.2 °F 39.2 °F 87% 29.43 in 5.0 mi East 12.7 mph 20.7 mph 0.10 in   Overcast
9:55 AM 42.8 °F 35.4 °F 39.2 °F 87% 29.42 in 4.0 mi East 15.0 mph 20.7 mph 0.11 in   Overcast
10:15 AM 42.8 °F 36.2 °F 39.2 °F 87% 29.41 in 2.5 mi East 12.7 mph 19.6 mph N/A   Overcast
10:35 AM 42.8 °F 35.8 °F 39.2 °F 87% 29.40 in 3.0 mi East 13.8 mph - 0.02 in   Overcast
10:55 AM 44.6 °F 39.2 °F 41.0 °F 87% 29.40 in 6.0 mi ESE 10.4 mph - 0.02 in   Overcast
11:35 AM 44.6 °F 38.4 °F 42.8 °F 93% 29.40 in 5.0 mi ESE 12.7 mph - N/A   Overcast
11:55 AM 44.6 °F 42.2 °F 42.8 °F 93% 29.40 in 3.0 mi SE 4.6 mph - N/A   Overcast
12:15 PM 44.6 °F 41.4 °F 42.8 °F 93% 29.40 in 8.0 mi South 5.8 mph - N/A   Overcast
12:35 PM 46.4 °F 44.3 °F 42.8 °F 87% 29.40 in 9.0 mi South 4.6 mph - N/A   Overcast
12:55 PM 46.4 °F 42.4 °F 44.6 °F 93% 29.40 in 10.0 mi South 8.1 mph - N/A   Overcast
1:15 PM 46.4 °F 42.4 °F 44.6 °F 93% 29.40 in 10.0 mi SSW 8.1 mph - N/A   Overcast
1:36 PM 48.2 °F - 44.6 °F 87% 29.40 in 10.0 mi SW 8.1 mph - N/A   Overcast
1:55 PM 46.4 °F 42.4 °F 42.8 °F 87% 29.39 in 10.0 mi SW 8.1 mph - N/A   Overcast
2:15 PM 46.4 °F 42.9 °F 42.8 °F 87% 29.39 in 10.0 mi SW 6.9 mph - N/A   Overcast
2:35 PM 48.2 °F - 44.6 °F 87% 29.39 in 10.0 mi SW 5.8 mph - N/A   Mostly Cloudy
3:16 PM 48.2 °F - 42.8 °F 82% 29.40 in 9.0 mi SW 9.2 mph - N/A   Overcast
3:35 PM 46.4 °F 41.1 °F 41.0 °F 81% 29.42 in 9.0 mi WSW 11.5 mph 16.1 mph N/A   Overcast
3:55 PM 46.4 °F 41.5 °F 41.0 °F 81% 29.42 in 10.0 mi SW 10.4 mph - N/A   Mostly Cloudy
4:15 PM 44.6 °F 38.8 °F 41.0 °F 87% 29.44 in 5.0 mi SW 11.5 mph - N/A   Overcast
4:35 PM 44.6 °F 39.2 °F 41.0 °F 87% 29.43 in 10.0 mi SW 10.4 mph - N/A   Overcast
4:55 PM 46.4 °F 41.1 °F 41.0 °F 81% 29.44 in 10.0 mi SW 11.5 mph - 0.02 in   Overcast
5:15 PM 46.4 °F 41.1 °F 41.0 °F 81% 29.45 in 10.0 mi SSW 11.5 mph - N/A   Mostly Cloudy
5:35 PM 46.4 °F 41.1 °F 39.2 °F 76% 29.46 in 10.0 mi SSW 11.5 mph - N/A   Overcast
5:55 PM 44.6 °F 37.8 °F 37.4 °F 76% 29.47 in 10.0 mi SW 15.0 mph - N/A   Overcast
6:15 PM 44.6 °F 38.8 °F 37.4 °F 76% 29.48 in 10.0 mi SSW 11.5 mph - N/A   Overcast
6:35 PM 44.6 °F 38.8 °F 39.2 °F 81% 29.49 in 10.0 mi SSW 11.5 mph - N/A   Overcast
6:55 PM 44.6 °F 38.1 °F 37.4 °F 76% 29.50 in 10.0 mi SW 13.8 mph 19.6 mph N/A   Overcast
7:15 PM 44.6 °F 39.2 °F 37.4 °F 76% 29.51 in 10.0 mi SW 10.4 mph - N/A   Overcast
7:35 PM 44.6 °F 37.8 °F 37.4 °F 76% 29.52 in 10.0 mi SW 15.0 mph 20.7 mph N/A   Overcast
7:55 PM 42.8 °F 34.0 °F 37.4 °F 81% 29.53 in 10.0 mi SW 20.7 mph 27.6 mph N/A   Overcast
8:15 PM 42.8 °F 35.4 °F 37.4 °F 81% 29.53 in 10.0 mi SSW 15.0 mph 18.4 mph N/A   Overcast
8:35 PM 42.8 °F 34.8 °F 35.6 °F 76% 29.54 in 10.0 mi SSW 17.3 mph 20.7 mph N/A   Overcast
8:55 PM 42.8 °F 35.1 °F 35.6 °F 76% 29.54 in 10.0 mi SSW 16.1 mph 21.9 mph N/A   Overcast
9:15 PM 41.0 °F 32.8 °F 35.6 °F 81% 29.55 in 10.0 mi SSW 16.1 mph 20.7 mph N/A   Overcast
9:35 PM 41.0 °F 33.1 °F 35.6 °F 81% 29.56 in 10.0 mi SSW 15.0 mph 24.2 mph N/A   Overcast
9:55 PM 39.2 °F 32.0 °F 35.6 °F 87% 29.57 in 10.0 mi SSW 11.5 mph 19.6 mph N/A   Overcast
10:15 PM 39.2 °F 31.6 °F 35.6 °F 87% 29.57 in 10.0 mi SSW 12.7 mph - N/A   Overcast
10:35 PM 39.2 °F 31.2 °F 35.6 °F 87% 29.58 in 10.0 mi SSW 13.8 mph - N/A   Overcast
10:55 PM 39.2 °F 31.2 °F 35.6 °F 87% 29.58 in 10.0 mi SSW 13.8 mph - N/A   Overcast
11:15 PM 39.2 °F 31.6 °F 35.6 °F 87% 29.58 in 10.0 mi SW 12.7 mph - N/A   Overcast
11:35 PM 39.2 °F 32.0 °F 35.6 °F 87% 29.58 in 10.0 mi SSW 11.5 mph - N/A   Overcast
11:55 PM 39.2 °F 32.0 °F 35.6 °F 87% 29.59 in 10.0 mi SSW 11.5 mph 18.4 mph N/A   Overcast